World > North America > United States > New York > Speigletown  

Speigletown, NY Hourly Weather Updates

Feedback E-mail the Weather

Quick Clicks

Speigletown, NY Weather Maps

°F °C°F °C
Speigletown Weather Map
UTC Time: 4/18/2024, 04:11
Your Time:

Speigletown, NY Regional Weather

Expires:202404180500;;934973
ASUS41 KALY 180410
RWRALY

NEW YORK STATE HOURLY WEATHER ROUNDUP
NATIONAL WEATHER SERVICE ALBANY NY
1200 AM EDT THU APR 18 2024

NOTE: "FAIR" INDICATES FEW OR NO CLOUDS BELOW 12,000 FEET WITH NO
SIGNIFICANT WEATHER AND/OR NO OBSTRUCTIONS TO VISIBILITY.


NYZ032-033-038>043-046>054-057>066-NYZ062>081-082-084-180500-
EAST

  
CITY           SKY/WX    TMP DP  RH WIND       PRES   REMARKS
ALBANY         RAIN      49  45  86 CALM      30.07F                  
GLENS FALLS    LGT RAIN  46  38  73 CALM      30.08F                  
POUGHKEEPSIE   CLOUDY    47  45  93 E5        30.04F                  
NEWBURGH       DRIZZLE   46  45  93 SE8       30.03F FOG              
MONTGOMERY     CLOUDY    46  43  89 NE7       30.03F                  
WHITE PLAINS   CLOUDY    46  43  89 E9        30.04F                  
ISLIP          CLOUDY    48  46  93 E16G22    30.05F                  
NEW YORK CITY  CLOUDY    49  44  83 NE10      30.03F                  
CENTRAL PARK   CLOUDY    50  45  83 E8        30.06S                  
$$


SKY/WX - Weather  TMP - Temperature  DP - Dew Point  RH - Humidity
WIND - Wind Direction/Speed PRES - Barometric Pressure VSB - Visibility
WCI - Wind Chill Index E13G22 Wind - East Wind 13 mph/Gusts of 22 mph

Trending Headlines

Trending Entertainment Headlines

Speigletown Radar Loop

Use the map search tool if you want to place a location marker on the radar map...

Speigletown Quick Facts

National Two Day Weather Forecast


E-mail the Speigletown Weather Forecast

Voice your opinion or tell us about page issues...